[Date Prev][Date Next][Thread Prev][Thread Next] - [Date Index][Thread Index][Author Index]

2 Line ISS Keps 8-14



ISS 
1 25544U 98067A   01226.60209491  .00022215  00000-0  28948-3 0  3442
2 25544  51.6386 154.1225 0011070  13.5599 349.7992 15.58579407156200


----
Via the sarex mailing list at AMSAT.ORG courtesy of AMSAT-NA.
To unsubscribe, send "unsubscribe sarex" to Majordomo@amsat.org



AMSAT Top AMSAT Home